Location: Santiago
(33.4378°S, 70.6505°W)
Time: 22:54:16
(UTC+00:00)

ISS - Pass Details

Date: 26 November 2023
Orbit: 415 x 417 km, 51.6° (Epoch: 04 December)

Event Time Altitude Azimuth Distance (km) Brightness Sun altitude
Exits shadow 07:53:40 17° 241° (WSW) 1,142 -1.8 -17.1°
Maximum altitude 07:54:48 20° 214° (SW) 1,038 -1.7 -16.9°
Drops below altitude 10° 07:57:25 10° 164° (SSE) 1,519 -0.1 -16.5°
Sets 07:59:55 0° 146° (SE) 2,388 1.6 -16.1°
